LNR032 TFFJ-TISX

Flight info

Callsign LNR032
Flight time 0h 43m
Altitude 6000
Route PJM R760 COY
Aircraft C208/L-SBDFGRWY/S

Departure

Time 2026-04-26 13:57
Airport St. Jean Airport (TFFJ)

Arrival

Time 2026-04-26 14:41
Airport Henry E. Rohlsen Airport (TISX)
Time Latitude Longitude Altitude Speed Heading
2026-04-26 13:48 17.90372 -62.84531 48 ft 0 kts 269°
2026-04-26 13:55 17.90372 -62.84534 48 ft 1 kts 274°
2026-04-26 13:55 17.90384 -62.84596 52 ft 7 kts 270°
2026-04-26 13:56 17.90407 -62.84642 55 ft 7 kts 312°
2026-04-26 13:56 17.90432 -62.84626 51 ft 11 kts 90°
2026-04-26 13:56 17.90437 -62.84424 38 ft 51 kts 88°
2026-04-26 13:56 17.90461 -62.83955 119 ft 75 kts 82°
2026-04-26 13:57 17.90830 -62.83524 297 ft 88 kts 32°
2026-04-26 13:57 17.91438 -62.83333 536 ft 91 kts 10°
2026-04-26 13:57 17.92069 -62.83401 626 ft 111 kts 324°
2026-04-26 13:57 17.92489 -62.84234 781 ft 130 kts 281°
2026-04-26 13:58 17.92621 -62.85173 1034 ft 131 kts 272°
2026-04-26 13:58 17.92665 -62.86117 1345 ft 128 kts 272°
2026-04-26 13:58 17.92742 -62.87010 1624 ft 134 kts 274°
2026-04-26 13:58 17.92830 -62.88020 1890 ft 140 kts 273°
2026-04-26 13:59 17.92985 -62.89032 2159 ft 140 kts 271°
2026-04-26 13:59 17.93199 -62.90031 2428 ft 144 kts 293°
2026-04-26 13:59 17.93657 -62.90981 2703 ft 148 kts 295°
2026-04-26 14:00 17.95045 -62.93856 3510 ft 146 kts 295°
2026-04-26 14:00 17.95511 -62.94804 3778 ft 145 kts 296°
2026-04-26 14:00 17.95816 -62.95429 3956 ft 144 kts 295°
2026-04-26 14:01 17.96426 -62.96680 4310 ft 144 kts 295°
2026-04-26 14:01 17.96880 -62.97613 4582 ft 144 kts 294°
2026-04-26 14:01 17.97336 -62.98552 4849 ft 144 kts 294°
2026-04-26 14:01 17.97791 -62.99480 5111 ft 143 kts 295°
2026-04-26 14:02 17.98240 -63.00403 5379 ft 141 kts 295°
2026-04-26 14:02 17.98679 -63.01306 5631 ft 140 kts 294°
2026-04-26 14:02 17.99120 -63.02210 5891 ft 138 kts 293°
2026-04-26 14:02 17.99574 -63.03148 6006 ft 150 kts 294°
2026-04-26 14:03 18.00072 -63.04172 6018 ft 165 kts 295°
2026-04-26 14:03 18.00609 -63.05271 6017 ft 172 kts 295°
2026-04-26 14:03 18.01163 -63.06391 6018 ft 174 kts 295°
2026-04-26 14:03 18.01717 -63.07534 6017 ft 177 kts 295°
2026-04-26 14:04 18.02277 -63.08690 6017 ft 179 kts 294°
2026-04-26 14:04 18.02848 -63.09864 6011 ft 181 kts 294°
2026-04-26 14:04 18.03418 -63.11047 6013 ft 181 kts 293°
2026-04-26 14:04 18.03669 -63.12303 6014 ft 179 kts 267°
2026-04-26 14:05 18.03471 -63.13597 6016 ft 177 kts 255°
2026-04-26 14:05 18.03231 -63.14852 6018 ft 178 kts 257°
2026-04-26 14:05 18.02994 -63.16130 6018 ft 178 kts 257°
2026-04-26 14:05 18.02752 -63.17407 6014 ft 178 kts 257°
2026-04-26 14:06 18.02510 -63.18683 6013 ft 178 kts 256°
2026-04-26 14:06 18.02270 -63.19954 6014 ft 177 kts 256°
2026-04-26 14:06 18.02030 -63.21225 6012 ft 177 kts 256°
2026-04-26 14:06 18.01790 -63.22493 6013 ft 177 kts 256°
2026-04-26 14:07 18.01550 -63.23764 6013 ft 177 kts 257°
2026-04-26 14:07 18.01321 -63.24974 6013 ft 177 kts 256°
2026-04-26 14:07 18.01081 -63.26243 6014 ft 177 kts 257°
2026-04-26 14:07 18.00842 -63.27514 6012 ft 177 kts 257°
2026-04-26 14:08 18.00602 -63.28785 6014 ft 177 kts 257°
2026-04-26 14:08 18.00361 -63.30056 6015 ft 177 kts 256°
2026-04-26 14:08 18.00119 -63.31325 6016 ft 178 kts 256°
2026-04-26 14:08 17.99875 -63.32601 6016 ft 178 kts 256°
2026-04-26 14:09 17.99635 -63.33876 6013 ft 178 kts 257°
2026-04-26 14:09 17.99398 -63.35146 6013 ft 177 kts 256°
2026-04-26 14:09 17.99155 -63.36414 6013 ft 177 kts 257°
2026-04-26 14:09 17.98919 -63.37664 6013 ft 177 kts 256°
2026-04-26 14:10 17.98679 -63.38929 6015 ft 177 kts 256°
2026-04-26 14:10 17.98435 -63.40200 6013 ft 177 kts 256°
2026-04-26 14:10 17.98197 -63.41471 6015 ft 177 kts 256°
2026-04-26 14:10 17.97957 -63.42744 6015 ft 178 kts 256°
2026-04-26 14:11 17.97469 -63.45288 6018 ft 177 kts 257°
2026-04-26 14:11 17.97228 -63.46562 6016 ft 178 kts 257°
2026-04-26 14:11 17.96987 -63.47833 6018 ft 177 kts 256°
2026-04-26 14:12 17.96745 -63.49105 6017 ft 177 kts 256°
2026-04-26 14:12 17.96504 -63.50369 6016 ft 177 kts 256°
2026-04-26 14:12 17.96260 -63.51639 6007 ft 177 kts 256°
2026-04-26 14:12 17.96019 -63.52908 6005 ft 177 kts 256°
2026-04-26 14:13 17.95538 -63.55440 6010 ft 176 kts 256°
2026-04-26 14:13 17.95296 -63.56702 6009 ft 177 kts 256°
2026-04-26 14:13 17.95056 -63.57953 6010 ft 177 kts 257°
2026-04-26 14:14 17.94814 -63.59222 6004 ft 177 kts 255°
2026-04-26 14:14 17.94575 -63.60487 6002 ft 176 kts 256°
2026-04-26 14:14 17.94331 -63.61750 6004 ft 176 kts 256°
2026-04-26 14:14 17.94086 -63.63009 6007 ft 176 kts 256°
2026-04-26 14:15 17.93845 -63.64269 6012 ft 176 kts 256°
2026-04-26 14:15 17.93606 -63.65533 6009 ft 177 kts 257°
2026-04-26 14:15 17.93366 -63.66801 6012 ft 177 kts 256°
2026-04-26 14:15 17.93123 -63.68070 6010 ft 177 kts 256°
2026-04-26 14:16 17.92883 -63.69336 6007 ft 177 kts 256°
2026-04-26 14:16 17.92641 -63.70601 6008 ft 177 kts 256°
2026-04-26 14:16 17.92402 -63.71869 6009 ft 177 kts 256°
2026-04-26 14:16 17.92161 -63.73132 6009 ft 176 kts 255°
2026-04-26 14:17 17.91919 -63.74399 6010 ft 177 kts 256°
2026-04-26 14:17 17.91682 -63.75643 6010 ft 176 kts 256°
2026-04-26 14:17 17.91443 -63.76899 6008 ft 175 kts 256°
2026-04-26 14:17 17.91203 -63.78156 6009 ft 175 kts 256°
2026-04-26 14:18 17.90963 -63.79410 6009 ft 175 kts 257°
2026-04-26 14:18 17.90724 -63.80665 6008 ft 176 kts 256°
2026-04-26 14:18 17.90484 -63.81926 6008 ft 176 kts 256°
2026-04-26 14:18 17.90243 -63.83186 6005 ft 177 kts 256°
2026-04-26 14:19 17.90001 -63.84455 6007 ft 177 kts 256°
2026-04-26 14:19 17.89759 -63.85722 6004 ft 176 kts 256°
2026-04-26 14:19 17.89516 -63.86985 6004 ft 177 kts 257°
2026-04-26 14:19 17.89276 -63.88246 6003 ft 176 kts 256°
2026-04-26 14:20 17.89033 -63.89511 6004 ft 177 kts 256°
2026-04-26 14:20 17.88792 -63.90778 6007 ft 177 kts 256°
2026-04-26 14:20 17.88550 -63.92045 6007 ft 177 kts 256°
2026-04-26 14:20 17.88305 -63.93313 6006 ft 177 kts 257°
2026-04-26 14:21 17.88063 -63.94584 6003 ft 177 kts 256°
2026-04-26 14:21 17.87824 -63.95832 6006 ft 177 kts 256°
2026-04-26 14:21 17.87581 -63.97098 6005 ft 177 kts 256°
2026-04-26 14:21 17.87338 -63.98363 6006 ft 177 kts 257°
2026-04-26 14:22 17.87094 -63.99635 6004 ft 178 kts 257°
2026-04-26 14:22 17.86851 -64.00905 6005 ft 177 kts 256°
2026-04-26 14:22 17.86608 -64.02171 6003 ft 177 kts 256°
2026-04-26 14:22 17.86364 -64.03440 6004 ft 177 kts 256°
2026-04-26 14:23 17.86120 -64.04706 6004 ft 177 kts 257°
2026-04-26 14:23 17.85877 -64.05976 6004 ft 177 kts 256°
2026-04-26 14:23 17.85633 -64.07247 6006 ft 177 kts 256°
2026-04-26 14:23 17.85388 -64.08515 6005 ft 177 kts 256°
2026-04-26 14:24 17.85143 -64.09786 6007 ft 178 kts 256°
2026-04-26 14:24 17.84898 -64.11058 6006 ft 177 kts 256°
2026-04-26 14:24 17.84655 -64.12323 6003 ft 177 kts 256°
2026-04-26 14:24 17.84411 -64.13591 6003 ft 177 kts 256°
2026-04-26 14:25 17.84167 -64.14855 6001 ft 177 kts 256°
2026-04-26 14:25 17.83923 -64.16123 6000 ft 177 kts 256°
2026-04-26 14:25 17.83681 -64.17376 6002 ft 177 kts 256°
2026-04-26 14:25 17.83436 -64.18647 6002 ft 178 kts 256°
2026-04-26 14:26 17.83192 -64.19916 6006 ft 177 kts 256°
2026-04-26 14:26 17.82947 -64.21182 6006 ft 177 kts 256°
2026-04-26 14:26 17.82702 -64.22448 6006 ft 177 kts 256°
2026-04-26 14:26 17.82457 -64.23717 6006 ft 177 kts 256°
2026-04-26 14:27 17.82212 -64.24986 6006 ft 178 kts 256°
2026-04-26 14:27 17.81967 -64.26254 6003 ft 177 kts 256°
2026-04-26 14:27 17.81721 -64.27522 6002 ft 177 kts 256°
2026-04-26 14:27 17.81477 -64.28788 6002 ft 177 kts 256°
2026-04-26 14:28 17.81231 -64.30054 6004 ft 177 kts 256°
2026-04-26 14:28 17.80987 -64.31318 6006 ft 177 kts 256°
2026-04-26 14:28 17.80741 -64.32585 6003 ft 177 kts 256°
2026-04-26 14:28 17.80495 -64.33855 6005 ft 178 kts 256°
2026-04-26 14:29 17.80250 -64.35124 6000 ft 177 kts 256°
2026-04-26 14:29 17.80004 -64.36389 6003 ft 177 kts 256°
2026-04-26 14:29 17.79759 -64.37656 6003 ft 177 kts 256°
2026-04-26 14:29 17.79512 -64.38923 6005 ft 177 kts 256°
2026-04-26 14:30 17.79265 -64.40192 6001 ft 177 kts 256°
2026-04-26 14:30 17.79021 -64.41457 6000 ft 177 kts 256°
2026-04-26 14:30 17.78776 -64.42719 6000 ft 176 kts 256°
2026-04-26 14:30 17.78531 -64.43979 5998 ft 176 kts 256°
2026-04-26 14:31 17.78287 -64.45233 6000 ft 176 kts 256°
2026-04-26 14:31 17.78042 -64.46490 5999 ft 176 kts 256°
2026-04-26 14:31 17.77880 -64.47325 5998 ft 176 kts 256°
2026-04-26 14:31 17.77553 -64.49007 5997 ft 176 kts 256°
2026-04-26 14:32 17.77391 -64.49837 5999 ft 176 kts 256°
2026-04-26 14:32 17.77146 -64.51096 5998 ft 177 kts 256°
2026-04-26 14:32 17.76900 -64.52358 6001 ft 177 kts 256°
2026-04-26 14:32 17.76654 -64.53626 5999 ft 177 kts 256°
2026-04-26 14:33 17.76408 -64.54887 6000 ft 177 kts 256°
2026-04-26 14:33 17.76162 -64.56147 6001 ft 176 kts 256°
2026-04-26 14:33 17.75916 -64.57410 6001 ft 177 kts 256°
2026-04-26 14:33 17.75671 -64.58672 6004 ft 177 kts 255°
2026-04-26 14:34 17.75424 -64.59933 6003 ft 176 kts 255°
2026-04-26 14:34 17.75177 -64.61190 5999 ft 176 kts 256°
2026-04-26 14:34 17.74931 -64.62455 6000 ft 177 kts 256°
2026-04-26 14:34 17.74684 -64.63716 6001 ft 177 kts 256°
2026-04-26 14:35 17.74437 -64.64982 6003 ft 178 kts 256°
2026-04-26 14:35 17.74188 -64.66254 6000 ft 178 kts 256°
2026-04-26 14:35 17.73940 -64.67527 5999 ft 178 kts 256°
2026-04-26 14:35 17.73692 -64.68797 6022 ft 178 kts 256°
2026-04-26 14:36 17.73440 -64.70068 6023 ft 178 kts 255°
2026-04-26 14:36 17.73132 -64.71325 5857 ft 176 kts 253°
2026-04-26 14:36 17.72859 -64.72548 5554 ft 170 kts 254°
2026-04-26 14:36 17.72577 -64.73797 5272 ft 182 kts 254°
2026-04-26 14:37 17.72273 -64.75112 5000 ft 189 kts 254°
2026-04-26 14:37 17.71959 -64.76470 4717 ft 189 kts 253°
2026-04-26 14:37 17.71659 -64.77764 4389 ft 177 kts 253°
2026-04-26 14:37 17.71578 -64.79046 3607 ft 183 kts 275°
2026-04-26 14:38 17.71720 -64.80388 2884 ft 181 kts 271°
2026-04-26 14:38 17.71568 -64.81680 2105 ft 180 kts 256°
2026-04-26 14:38 17.71312 -64.82875 1757 ft 153 kts 258°
2026-04-26 14:38 17.71127 -64.83894 1321 ft 127 kts 252°
2026-04-26 14:39 17.70665 -64.84472 1065 ft 96 kts 197°
2026-04-26 14:39 17.70073 -64.84479 942 ft 78 kts 150°
2026-04-26 14:39 17.69758 -64.84033 751 ft 80 kts 105°
2026-04-26 14:39 17.69862 -64.83467 581 ft 83 kts 78°
2026-04-26 14:40 17.69887 -64.82872 417 ft 79 kts 93°
2026-04-26 14:40 17.69952 -64.82308 289 ft 76 kts 83°
2026-04-26 14:40 17.69999 -64.81737 150 ft 79 kts 83°
2026-04-26 14:40 17.70052 -64.81220 66 ft 61 kts 89°
2026-04-26 14:41 17.70083 -64.80826 56 ft 49 kts 83°
2026-04-26 14:41 17.70122 -64.80490 47 ft 44 kts 80°
2026-04-26 14:41 17.70154 -64.80173 42 ft 40 kts 85°
2026-04-26 14:41 17.70177 -64.79953 38 ft 20 kts 82°
2026-04-26 14:42 17.70127 -64.79813 37 ft 24 kts 118°
2026-04-26 14:42 17.70047 -64.79678 35 ft 16 kts 159°
2026-04-26 14:42 17.69985 -64.79584 34 ft 10 kts 91°
2026-04-26 14:42 17.69984 -64.79577 34 ft 0 kts 91°